Printer-friendly version

IAU Minor Planet Center

Minor Planet Center

MPEC 2007-B46 : 2004 BO41 = 2007 AG2

The following Minor Planet Electronic Circular may be linked-to from your own Web pages, but must not otherwise be redistributed electronically.


Read MPEC 2007-B45 Read MPEC 2007-B47


M.P.E.C. 2007-B46                                Issued 2007 Jan. 25, 13:08 UT

     The Minor Planet Electronic Circulars contain information on unusual
         minor planets and routine data on comets.  They are published
   on behalf of Commission 20 of the International Astronomical Union by the
          Minor Planet Center, Smithsonian Astrophysical Observatory,
                          Cambridge, MA 02138, U.S.A.

             Prepared using the Tamkin Foundation Computer Network

                              MPC@CFA.HARVARD.EDU
          URL http://cfa-www.harvard.edu/iau/mpc.html  ISSN 1523-6714

                             2004 BO41 = 2007 AG2

                           Revision to MPEC 2004-B40

Orbital elements:
2004 BO41 = 2007 AG2                                     Earth MOID = 0.0889 AU
Id. S. Foglia
Epoch 2007 Apr. 10.0 TT = JDT 2454200.5                 MPC
M 356.71579              (2000.0)            P               Q
n   0.95850888     Peri.  254.42858     -0.54434697     +0.80963075
a   1.0187602      Node   337.82551     -0.34997555     -0.45700482
e   0.4927576      Incl.   35.56261     -0.76236703     -0.36829967
P   1.03           H   17.5           G   0.15           U   4
Residuals in seconds of arc
040119 704 (1.6+  0.3+)   040123 704  0.8-  0.3+    070107 704 (0.7+  1.3-)
040119 704 (1.6+  0.2+)   040123 704  0.1-  0.2+    070107 704  0.1+  0.6-
040119 704 (1.9+  0.2-)   040123 704 (1.5-  0.0 )   070107 704 (1.5-  0.7-)
040119 704 (1.9+  0.1-)   040124 J95  0.0   0.0     070110 J95  0.2+  0.1-
040123 704  0.2+  0.0     040124 J95  0.0   0.4+    070110 J95  0.1+  0.3-
040123 704  0.8-  0.1-    040124 J95  0.8+  0.2-    070110 J95  0.5+  0.2-
040123 704  0.5-  0.0     040125 J95  0.0   0.2-    070110 J95  0.2+  0.1+
040123 704 (1.6-  0.1+)   040125 J95  0.3+  0.2-    070111 J95  0.0   0.6+
040123 704  0.9-  1.2+    040125 J95  0.5-  0.8-    070111 J95  0.9-  0.2-
040123 704  0.5+  0.2+    040128 926  0.2+  0.2+    070111 J95  0.5+  0.8+
040123 704  0.9-  0.3-    040128 926  0.0   1.2-    070114 J95  0.2-  0.0
040123 704  1.0-  0.5+    040128 926  1.0+  0.2-    070114 J95  0.0   0.2-
040123 704 (2.0-  0.1+)   040128 291 (2.4-  2.5+)   070114 J95  0.2+  0.2-
040123 704  0.0   0.2+    040128 291 (2.0-  1.1+)   070123 J95  0.0   0.0
040123 704  0.5-  0.4+    040128 291 (2.5-  1.9+)   070123 J95  0.3-  0.1+
040123 704  0.3+  1.0+    040129 J95  0.3+  0.2+    070123 J95  0.2-  0.2-
040123 704  1.3-  0.0     040129 J95  0.1-  0.3+
040123 704  0.2-  0.4+    070107 704  0.0   0.5-

Ephemeris:
2004 BO41                a,e,i = 1.02, 0.49, 36                  q = 0.5168
Date    TT    R. A. (2000) Decl.     Delta      r     Elong.  Phase     V
2007 01 20    22 11.50   +65 48.3    0.637    1.165    89.3    57.6    18.9
2007 01 30    23 03.62   +61 33.3    0.587    1.091    83.9    63.8    18.8
2007 02 09    23 52.22   +55 55.3    0.534    1.010    77.0    72.0    18.7
2007 02 19    00 35.35   +47 59.9    0.480    0.922    67.9    83.3    18.6
2007 03 01    01 09.86   +36 30.5    0.430    0.829    55.7    98.9    18.8
2007 03 11    01 31.61   +20 20.5    0.400    0.733    39.8   119.7    19.7

Timothy B. Spahr             (C) Copyright 2007 MPC           M.P.E.C. 2007-B46

Read MPEC 2007-B45 Read MPEC 2007-B47


Our Web policy. Index to the CBAT/MPC/ICQ pages.


Valid HTML 4.01!